contact:dominique.lefevre@mio.osupytheas.fr, maurice.libes@osupytheas.fr, didier.mallarino@osupytheas.fr
Project:EMSO http://www.emso-fr.org/EMSO-France
Depth: 2436.0 m
Title:EMSO Ligure Ouest : Data MII capteur AQUADOPP
Date,Latitude,Longitude,X_East,Y_North,Z_Up,Amplitude_X,Amplitude_Y,Amplitude_Z,Batterie,SoundSpeed,Heading,Pitch,Roll,Pressure,TIS,Speed,Direction
, degrees North, degrees East, m.s-1, m.s-1,m.s-1, 1, 1, 1, Volt, m.s-1, degree, degree, degree, dbar, degree_C, m.s-1, degree
2023-12-10T00:04:03,42.805,6.029,-0.022,-0.001,-0.005,111.0,110.0,108.0,13.3,1505.2,343.1,-0.8,1.8,2471.527,13.29,0.022,267.4
2023-12-10T00:07:03,42.805,6.029,-0.044,-0.015,-0.004,111.0,111.0,107.0,13.4,1505.2,350.0,-0.8,1.8,2471.527,13.29,0.046,251.2
2023-12-10T00:10:03,42.805,6.029,-0.045,0.007,-0.033,111.0,110.0,107.0,13.4,1505.2,349.7,-0.8,1.8,2471.511,13.29,0.045,278.8
2023-12-10T00:13:03,42.805,6.029,-0.051,0.015,-0.03,111.0,111.0,107.0,13.4,1505.2,350.6,-0.8,1.8,2471.552,13.29,0.053,286.4
2023-12-10T00:16:03,42.805,6.029,-0.017,0.004,-0.012,110.0,110.0,108.0,13.4,1505.2,354.6,-0.8,1.8,2471.548,13.29,0.017,283.2
2023-12-10T00:19:03,42.805,6.029,-0.062,0.008,-0.023,111.0,110.0,108.0,13.3,1505.2,350.9,-0.8,1.8,2471.52,13.29,0.062,277.3
2023-12-10T00:22:03,42.805,6.029,-0.043,0.001,-0.028,111.0,110.0,106.0,13.4,1505.2,354.4,-0.8,1.8,2471.527,13.29,0.043,271.3
2023-12-10T00:25:03,42.805,6.029,-0.037,-0.013,-0.031,110.0,109.0,107.0,13.3,1505.2,349.4,-0.8,1.8,2471.5,13.29,0.039,250.6
2023-12-10T00:28:03,42.805,6.029,-0.039,0.007,-0.003,112.0,111.0,107.0,13.3,1505.2,344.2,-0.8,1.8,2471.515,13.29,0.039,280.2
2023-12-10T00:31:03,42.805,6.029,-0.025,0.002,-0.033,111.0,110.0,108.0,13.4,1505.2,2.4,-0.7,1.8,2471.506,13.29,0.025,274.6
2023-12-10T00:34:03,42.805,6.029,-0.055,0.005,-0.011,111.0,110.0,107.0,13.3,1505.2,351.8,-0.8,1.8,2471.513,13.29,0.055,275.2
2023-12-10T00:37:03,42.805,6.029,-0.042,0.006,-0.028,110.0,110.0,107.0,13.4,1505.2,354.7,-0.8,1.8,2471.547,13.29,0.042,278.1
2023-12-10T00:40:03,42.805,6.029,-0.034,0.003,-0.013,110.0,109.0,106.0,13.4,1505.2,0.8,-0.8,1.9,2471.503,13.29,0.034,275.0
2023-12-10T00:43:03,42.805,6.029,-0.059,0.003,-0.028,111.0,109.0,105.0,13.4,1505.2,345.6,-0.8,1.8,2471.543,13.29,0.059,272.9
2023-12-10T00:46:03,42.805,6.029,-0.041,-0.007,0.011,111.0,110.0,107.0,13.4,1505.2,343.2,-0.8,1.8,2471.499,13.29,0.041,260.3
2023-12-10T00:49:03,42.805,6.029,-0.037,0.013,0.014,110.0,109.0,109.0,13.3,1505.2,345.9,-0.7,1.8,2471.516,13.29,0.039,289.4
2023-12-10T00:52:03,42.805,6.029,-0.001,-0.008,-0.008,111.0,110.0,108.0,13.4,1505.2,345.9,-0.7,1.8,2471.507,13.29,0.008,187.1
2023-12-10T00:55:03,42.805,6.029,-0.043,0.0,-0.012,111.0,110.0,108.0,13.3,1505.2,359.1,-0.8,1.8,2471.539,13.29,0.043,270.0
2023-12-10T00:58:03,42.805,6.029,-0.064,0.003,-0.015,112.0,110.0,107.0,13.4,1505.2,0.8,-0.8,1.8,2471.496,13.29,0.064,272.7
2023-12-10T01:04:03,42.805,6.029,-0.053,0.003,-0.03,112.0,111.0,108.0,13.4,1505.2,353.5,-0.8,1.8,2471.55,13.29,0.053,273.2
2023-12-10T01:07:03,42.805,6.029,-0.048,0.003,-0.004,110.0,110.0,107.0,13.4,1505.2,358.2,-0.8,1.8,2471.543,13.29,0.048,273.6
2023-12-10T01:10:03,42.805,6.029,-0.033,0.002,0.002,112.0,111.0,107.0,13.4,1505.2,355.3,-0.8,1.8,2471.549,13.29,0.033,273.5
2023-12-10T01:13:03,42.805,6.029,-0.036,0.011,-0.006,110.0,111.0,107.0,13.4,1505.2,351.1,-0.7,1.8,2471.512,13.29,0.037,287.0
2023-12-10T01:16:03,42.805,6.029,-0.034,-0.002,-0.027,110.0,111.0,108.0,13.4,1505.2,345.5,-0.8,1.8,2471.562,13.29,0.034,266.6
2023-12-10T01:19:03,42.805,6.029,-0.035,0.0,0.001,111.0,111.0,107.0,13.4,1505.2,0.0,-0.8,1.8,2471.551,13.29,0.035,270.0
2023-12-10T01:22:03,42.805,6.029,-0.048,0.01,0.02,111.0,110.0,107.0,13.3,1505.2,352.0,-0.8,1.8,2471.526,13.29,0.049,281.8
2023-12-10T01:25:03,42.805,6.029,-0.03,0.001,-0.006,111.0,111.0,108.0,13.4,1505.2,350.3,-0.8,1.8,2471.534,13.29,0.03,271.9
2023-12-10T01:28:03,42.805,6.029,-0.015,0.01,-0.02,113.0,111.0,107.0,13.4,1505.2,343.6,-0.8,1.8,2471.552,13.29,0.018,303.7
2023-12-10T01:31:03,42.805,6.029,-0.034,0.031,-0.016,111.0,110.0,107.0,13.4,1505.2,1.7,-0.8,1.8,2471.542,13.29,0.046,312.4
2023-12-10T01:34:03,42.805,6.029,-0.039,-0.011,-0.022,113.0,110.0,108.0,13.3,1505.2,337.6,-0.8,1.8,2471.565,13.29,0.04,254.3
2023-12-10T01:37:03,42.805,6.029,-0.041,0.005,-0.039,111.0,110.0,107.0,13.3,1505.2,355.5,-0.8,1.8,2471.556,13.29,0.041,277.0
2023-12-10T01:40:03,42.805,6.029,-0.027,0.025,-0.015,112.0,110.0,108.0,13.4,1505.2,343.6,-0.8,1.8,2471.532,13.29,0.036,312.8
2023-12-10T01:43:03,42.805,6.029,-0.048,0.018,-0.008,111.0,111.0,107.0,13.4,1505.2,0.8,-0.8,1.8,2471.545,13.29,0.051,290.6
2023-12-10T01:46:03,42.805,6.029,-0.035,0.011,-0.038,112.0,111.0,108.0,13.3,1505.2,337.9,-0.7,1.8,2471.564,13.29,0.036,287.4
2023-12-10T01:49:03,42.805,6.029,-0.027,0.012,-0.029,112.0,111.0,108.0,13.4,1505.2,346.7,-0.8,1.8,2471.544,13.29,0.029,294.0
2023-12-10T01:52:03,42.805,6.029,-0.033,0.007,-0.014,111.0,111.0,108.0,13.4,1505.2,345.5,-0.8,1.8,2471.533,13.29,0.033,282.0
2023-12-10T01:55:03,42.805,6.029,-0.024,0.007,-0.032,111.0,110.0,107.0,13.3,1505.2,3.2,-0.8,1.8,2471.536,13.29,0.025,286.3
2023-12-10T01:58:03,42.805,6.029,-0.051,0.018,-0.027,112.0,111.0,107.0,13.4,1505.2,356.8,-0.8,1.8,2471.558,13.29,0.054,289.4
2023-12-10T02:04:03,42.805,6.029,-0.033,0.032,-0.002,112.0,110.0,108.0,13.3,1505.2,338.9,-0.8,1.8,2471.589,13.29,0.045,314.1
2023-12-10T02:07:03,42.805,6.029,-0.044,0.016,0.019,112.0,110.0,107.0,13.4,1505.2,357.4,-0.8,1.8,2471.601,13.29,0.046,290.0
2023-12-10T02:10:03,42.805,6.029,-0.054,0.016,-0.004,112.0,111.0,107.0,13.3,1505.2,357.4,-0.7,1.8,2471.629,13.29,0.056,286.5
2023-12-10T02:13:03,42.805,6.029,-0.029,0.033,-0.011,111.0,110.0,107.0,13.4,1505.2,351.1,-0.8,1.8,2471.564,13.29,0.043,318.7
2023-12-10T02:16:03,42.805,6.029,-0.057,0.003,-0.012,112.0,111.0,107.0,13.3,1505.2,337.9,-0.7,1.8,2471.596,13.29,0.057,273.0
2023-12-10T02:19:03,42.805,6.029,-0.015,0.036,-0.042,110.0,110.0,107.0,13.4,1505.2,356.5,-0.7,1.8,2471.614,13.29,0.039,337.4
2023-12-10T02:22:03,42.805,6.029,-0.047,0.03,-0.037,110.0,111.0,107.0,13.4,1505.2,353.5,-0.8,1.8,2471.613,13.29,0.055,302.6
2023-12-10T02:25:03,42.805,6.029,-0.054,0.018,-0.03,111.0,110.0,107.0,13.4,1505.2,352.9,-0.8,1.8,2471.6,13.29,0.056,288.4
2023-12-10T02:28:03,42.805,6.029,-0.04,0.007,-0.049,111.0,111.0,107.0,13.4,1505.2,344.7,-0.8,1.8,2471.599,13.29,0.04,279.9
2023-12-10T02:31:03,42.805,6.029,-0.016,0.039,0.001,112.0,111.0,108.0,13.4,1505.2,353.8,-0.8,1.8,2471.591,13.29,0.042,337.7
2023-12-10T02:34:03,42.805,6.029,-0.04,0.015,-0.043,111.0,111.0,107.0,13.4,1505.2,356.9,-0.7,1.8,2471.594,13.29,0.042,290.6
2023-12-10T02:37:03,42.805,6.029,-0.031,-0.01,0.012,111.0,112.0,108.0,13.4,1505.2,338.2,-0.7,1.8,2471.624,13.29,0.032,252.1
2023-12-10T02:40:03,42.805,6.029,-0.029,-0.012,-0.001,111.0,110.0,107.0,13.3,1505.2,345.0,-0.7,1.8,2471.619,13.29,0.031,247.5
2023-12-10T02:43:03,42.805,6.029,-0.034,0.006,-0.015,112.0,110.0,108.0,13.4,1505.2,353.0,-0.8,1.8,2471.564,13.29,0.034,280.0
2023-12-10T02:46:03,42.805,6.029,-0.035,0.011,0.0,112.0,111.0,109.0,13.3,1505.2,338.9,-0.8,1.8,2471.603,13.29,0.036,287.4
2023-12-10T02:49:03,42.805,6.029,-0.025,0.008,-0.019,111.0,111.0,107.0,13.4,1505.2,354.8,-0.8,1.8,2471.61,13.29,0.026,287.7
2023-12-10T02:52:03,42.805,6.029,-0.011,0.039,-0.012,112.0,111.0,108.0,13.4,1505.2,358.2,-0.8,1.8,2471.599,13.29,0.04,344.3
2023-12-10T02:55:03,42.805,6.029,-0.04,0.012,-0.015,112.0,110.0,107.0,13.4,1505.2,349.2,-0.8,1.8,2471.611,13.29,0.041,286.7
2023-12-10T02:58:03,42.805,6.029,-0.04,0.028,-0.004,112.0,111.0,108.0,13.4,1505.2,356.6,-0.8,1.8,2471.595,13.29,0.048,305.0
2023-12-10T03:04:03,42.805,6.029,-0.031,0.026,-0.029,111.0,110.0,108.0,13.4,1505.2,351.8,-0.8,1.8,2471.686,13.29,0.04,310.0
2023-12-10T03:07:03,42.805,6.029,-0.024,0.038,-0.032,112.0,111.0,107.0,13.4,1505.2,0.8,-0.8,1.8,2471.659,13.29,0.044,327.7
2023-12-10T03:10:03,42.805,6.029,-0.049,0.011,-0.023,111.0,110.0,108.0,13.4,1505.2,351.8,-0.8,1.8,2471.642,13.29,0.05,282.7
2023-12-10T03:13:03,42.805,6.029,-0.036,0.022,-0.018,111.0,110.0,107.0,13.3,1505.2,350.2,-0.7,1.8,2471.649,13.29,0.042,301.4
2023-12-10T03:16:03,42.805,6.029,-0.032,0.021,-0.007,111.0,110.0,108.0,13.4,1505.2,1.6,-0.7,1.8,2471.62,13.29,0.038,303.3
2023-12-10T03:19:03,42.805,6.029,-0.035,0.006,-0.037,111.0,109.0,108.0,13.4,1505.2,357.4,-0.7,1.8,2471.658,13.29,0.035,279.7
2023-12-10T03:22:03,42.805,6.029,-0.019,0.043,-0.047,111.0,112.0,107.0,13.4,1505.2,348.2,-0.7,1.8,2471.627,13.29,0.047,336.2
2023-12-10T03:25:03,42.805,6.029,-0.024,0.031,0.004,111.0,111.0,108.0,13.4,1505.2,347.9,-0.7,1.8,2471.654,13.29,0.039,322.3
2023-12-10T03:28:03,42.805,6.029,-0.029,0.021,-0.003,111.0,110.0,108.0,13.4,1505.2,345.5,-0.8,1.8,2471.641,13.29,0.035,305.9
2023-12-10T03:31:03,42.805,6.029,-0.019,0.047,-0.023,111.0,111.0,107.0,13.4,1505.2,359.2,-0.8,1.8,2471.659,13.29,0.05,338.0
2023-12-10T03:34:03,42.805,6.029,-0.05,0.028,-0.011,112.0,110.0,107.0,13.4,1505.2,338.2,-0.7,1.8,2471.593,13.29,0.057,299.3
2023-12-10T03:37:03,42.805,6.029,-0.028,0.027,-0.017,110.0,111.0,108.0,13.4,1505.2,350.5,-0.8,1.8,2471.645,13.29,0.038,314.0
2023-12-10T03:40:03,42.805,6.029,-0.039,-0.004,-0.031,112.0,110.0,108.0,13.4,1505.2,349.1,-0.8,1.8,2471.657,13.29,0.039,264.1
2023-12-10T03:43:03,42.805,6.029,-0.024,0.039,-0.02,111.0,110.0,107.0,13.4,1505.2,359.1,-0.8,1.8,2471.626,13.29,0.045,328.4
2023-12-10T03:46:03,42.805,6.029,-0.023,0.021,-0.039,112.0,110.0,106.0,13.4,1505.2,342.5,-0.8,1.8,2471.638,13.29,0.031,312.4
2023-12-10T03:49:03,42.805,6.029,-0.043,0.03,-0.035,111.0,111.0,107.0,13.4,1505.2,350.6,-0.8,1.8,2471.646,13.29,0.052,304.9
2023-12-10T03:52:03,42.805,6.029,-0.024,0.012,-0.017,111.0,110.0,107.0,13.3,1505.2,346.3,-0.8,1.8,2471.678,13.29,0.026,296.6
2023-12-10T03:55:03,42.805,6.029,-0.02,0.015,-0.031,111.0,110.0,107.0,13.4,1505.2,345.2,-0.8,1.8,2471.634,13.29,0.025,306.9
2023-12-10T03:58:03,42.805,6.029,-0.031,0.018,-0.011,112.0,110.0,108.0,13.4,1505.2,344.7,-0.8,1.8,2471.682,13.29,0.035,300.1
2023-12-10T04:04:03,42.805,6.029,-0.047,0.01,-0.007,111.0,111.0,108.0,13.3,1505.2,348.2,-0.7,1.8,2471.697,13.29,0.048,282.0
2023-12-10T04:07:03,42.805,6.029,-0.043,0.022,0.004,110.0,111.0,107.0,13.4,1505.2,350.1,-0.8,1.8,2471.747,13.29,0.048,297.1
2023-12-10T04:10:03,42.805,6.029,-0.012,0.021,-0.026,110.0,111.0,108.0,13.4,1505.2,349.1,-0.8,1.8,2471.674,13.29,0.024,330.3
2023-12-10T04:13:03,42.805,6.029,-0.034,0.036,-0.035,111.0,110.0,107.0,13.4,1505.2,345.4,-0.7,1.8,2471.67,13.29,0.049,316.6
2023-12-10T04:16:03,42.805,6.029,-0.023,0.051,-0.018,111.0,110.0,107.0,13.3,1505.2,345.5,-0.8,1.8,2471.682,13.29,0.055,335.7
2023-12-10T04:19:03,42.805,6.029,-0.047,0.042,0.011,111.0,109.0,106.0,13.4,1505.2,345.6,-0.8,1.8,2471.689,13.29,0.063,311.8
2023-12-10T04:22:03,42.805,6.029,-0.028,0.022,-0.004,112.0,109.0,106.0,13.4,1505.2,347.2,-0.7,1.8,2471.694,13.29,0.035,308.2
2023-12-10T04:25:03,42.805,6.029,-0.033,0.022,-0.024,112.0,112.0,107.0,13.3,1505.2,0.0,-0.8,1.8,2471.7,13.29,0.039,303.7
2023-12-10T04:28:03,42.805,6.029,-0.02,0.048,-0.048,111.0,109.0,108.0,13.4,1505.2,355.7,-0.8,1.8,2471.694,13.29,0.052,337.4
2023-12-10T04:31:03,42.805,6.029,-0.01,0.047,-0.031,112.0,110.0,107.0,13.4,1505.2,359.1,-0.8,1.8,2471.669,13.29,0.048,348.0
2023-12-10T04:34:03,42.805,6.029,-0.046,0.008,-0.008,110.0,111.0,108.0,13.4,1505.2,345.7,-0.7,1.8,2471.672,13.29,0.046,279.9
2023-12-10T04:37:03,42.805,6.029,-0.006,0.028,-0.01,110.0,109.0,107.0,13.4,1505.2,348.8,-0.8,1.8,2471.684,13.29,0.028,347.9
2023-12-10T04:40:03,42.805,6.029,-0.042,0.036,-0.03,110.0,110.0,107.0,13.4,1505.2,348.9,-0.8,1.8,2471.642,13.29,0.055,310.6
2023-12-10T04:43:03,42.805,6.029,-0.004,0.042,-0.014,110.0,110.0,107.0,13.3,1505.2,354.6,-0.7,1.8,2471.661,13.29,0.042,354.6
2023-12-10T04:46:03,42.805,6.029,-0.023,0.032,-0.019,110.0,110.0,107.0,13.4,1505.2,345.0,-0.7,1.8,2471.664,13.29,0.039,324.3
2023-12-10T04:49:03,42.805,6.029,-0.027,0.024,-0.043,110.0,109.0,106.0,13.4,1505.2,352.0,-0.8,1.8,2471.658,13.29,0.036,311.6
2023-12-10T04:52:03,42.805,6.029,-0.047,0.023,-0.017,111.0,110.0,107.0,13.3,1505.2,355.4,-0.8,1.8,2471.658,13.29,0.052,296.1
2023-12-10T04:55:03,42.805,6.029,-0.019,0.034,-0.006,110.0,110.0,107.0,13.4,1505.2,0.0,-0.8,1.8,2471.683,13.29,0.038,330.8
2023-12-10T04:58:03,42.805,6.029,-0.015,0.02,-0.041,110.0,111.0,107.0,13.4,1505.2,344.8,-0.8,1.8,2471.637,13.29,0.025,323.1
2023-12-10T05:04:03,42.805,6.029,-0.039,0.029,-0.015,111.0,109.0,106.0,13.3,1505.2,343.3,-0.8,1.8,2471.723,13.29,0.048,306.6
2023-12-10T05:07:03,42.805,6.029,-0.018,0.032,0.0,109.0,109.0,107.0,13.4,1505.2,355.9,-0.7,1.8,2471.741,13.29,0.036,330.6
2023-12-10T05:10:03,42.805,6.029,-0.027,0.029,-0.002,110.0,112.0,106.0,13.3,1505.2,345.5,-0.8,1.8,2471.675,13.29,0.039,317.0
2023-12-10T05:13:03,42.805,6.029,-0.007,0.019,-0.03,109.0,109.0,108.0,13.4,1505.2,347.2,-0.8,1.8,2471.653,13.29,0.02,339.8
2023-12-10T05:16:03,42.805,6.029,0.007,0.025,-0.028,110.0,109.0,107.0,13.4,1505.2,355.7,-0.7,1.8,2471.708,13.29,0.025,15.6
2023-12-10T05:19:03,42.805,6.029,-0.011,0.0,-0.003,110.0,109.0,106.0,13.4,1505.2,348.2,-0.8,1.8,2471.703,13.29,0.011,270.0
2023-12-10T05:22:03,42.805,6.029,-0.036,0.061,-0.013,109.0,109.0,106.0,13.4,1505.2,355.3,-0.7,1.8,2471.672,13.29,0.07,329.4
2023-12-10T05:25:03,42.805,6.029,-0.033,0.024,0.021,111.0,109.0,106.0,13.4,1505.2,342.3,-0.8,1.8,2471.689,13.29,0.04,306.0
2023-12-10T05:28:03,42.805,6.029,-0.036,0.033,-0.011,110.0,109.0,104.0,13.4,1505.2,342.6,-0.8,1.8,2471.641,13.29,0.048,312.5
2023-12-10T05:31:03,42.805,6.029,-0.031,0.033,-0.007,108.0,109.0,106.0,13.3,1505.2,3.2,-0.8,1.8,2471.636,13.29,0.045,316.8
2023-12-10T05:34:03,42.805,6.029,-0.04,0.032,-0.015,109.0,108.0,106.0,13.4,1505.2,349.2,-0.8,1.8,2471.668,13.29,0.051,308.7
2023-12-10T05:37:03,42.805,6.029,-0.01,0.034,-0.049,108.0,108.0,106.0,13.4,1505.2,355.8,-0.8,1.8,2471.656,13.29,0.035,343.6
2023-12-10T05:40:03,42.805,6.029,-0.012,0.033,0.013,110.0,109.0,106.0,13.4,1505.2,4.0,-0.7,1.8,2471.663,13.29,0.035,340.0
2023-12-10T05:43:03,42.805,6.029,-0.017,0.026,-0.015,108.0,108.0,107.0,13.4,1505.2,351.5,-0.8,1.8,2471.686,13.29,0.031,326.8
2023-12-10T05:46:03,42.805,6.029,-0.026,0.024,-0.001,109.0,108.0,106.0,13.4,1505.2,349.3,-0.8,1.8,2471.643,13.29,0.035,312.7
2023-12-10T05:49:03,42.805,6.029,-0.015,0.018,-0.033,108.0,108.0,106.0,13.4,1505.2,348.5,-0.7,1.8,2471.683,13.29,0.023,320.2
2023-12-10T05:52:03,42.805,6.029,-0.007,0.031,-0.001,108.0,109.0,106.0,13.3,1505.2,359.2,-0.8,1.8,2471.68,13.29,0.031,347.3
2023-12-10T05:55:03,42.805,6.029,-0.021,0.042,0.001,110.0,108.0,105.0,13.4,1505.2,356.5,-0.8,1.8,2471.686,13.29,0.046,333.4
2023-12-10T05:58:03,42.805,6.029,-0.012,0.043,0.004,109.0,108.0,105.0,13.3,1505.2,1.7,-0.8,1.8,2471.693,13.29,0.044,344.4
2023-12-10T06:04:03,42.805,6.029,-0.032,0.052,-0.02,108.0,108.0,105.0,13.4,1505.2,351.7,-0.8,1.8,2471.724,13.29,0.061,328.4
2023-12-10T06:07:03,42.805,6.029,-0.016,0.031,-0.021,108.0,109.0,106.0,13.3,1505.2,348.8,-0.7,1.8,2471.724,13.29,0.034,332.7
2023-12-10T06:10:03,42.805,6.029,-0.024,0.025,-0.001,109.0,108.0,105.0,13.4,1505.2,351.0,-0.8,1.8,2471.713,13.29,0.034,316.2
2023-12-10T06:13:03,42.805,6.029,-0.025,0.012,0.006,109.0,107.0,104.0,13.4,1505.2,348.8,-0.8,1.8,2471.702,13.29,0.027,295.6
2023-12-10T06:16:03,42.805,6.029,-0.004,0.044,-0.014,109.0,107.0,105.0,13.4,1505.2,355.0,-0.8,1.8,2471.728,13.29,0.044,354.8
2023-12-10T06:19:03,42.805,6.029,-0.021,0.021,0.0,108.0,108.0,106.0,13.4,1505.2,345.7,-0.8,1.8,2471.716,13.29,0.029,315.0
2023-12-10T06:22:03,42.805,6.029,-0.03,0.019,0.007,108.0,107.0,105.0,13.4,1505.2,344.2,-0.7,1.8,2471.715,13.29,0.035,302.3
2023-12-10T06:25:03,42.805,6.029,-0.019,0.051,-0.011,109.0,107.0,105.0,13.4,1505.2,346.5,-0.8,1.8,2471.738,13.29,0.054,339.6
2023-12-10T06:28:03,42.805,6.029,-0.037,0.044,0.0,109.0,109.0,104.0,13.4,1505.2,352.4,-0.7,1.8,2471.681,13.29,0.057,319.9
2023-12-10T06:31:03,42.805,6.029,-0.023,0.05,0.018,108.0,108.0,105.0,13.3,1505.2,350.2,-0.7,1.8,2471.659,13.29,0.055,335.3
2023-12-10T06:34:03,42.805,6.029,-0.014,0.019,0.004,109.0,107.0,105.0,13.4,1505.2,0.0,-0.8,1.8,2471.685,13.29,0.023,323.6
2023-12-10T06:37:03,42.805,6.029,-0.023,0.042,-0.024,108.0,108.0,105.0,13.4,1505.2,0.0,-0.8,1.8,2471.679,13.29,0.047,331.3
2023-12-10T06:40:03,42.805,6.029,-0.03,0.027,-0.029,108.0,108.0,106.0,13.4,1505.2,341.8,-0.8,1.8,2471.695,13.29,0.04,312.0
2023-12-10T06:43:03,42.805,6.029,-0.025,0.032,-0.018,110.0,107.0,105.0,13.4,1505.2,346.1,-0.8,1.8,2471.671,13.29,0.04,322.0
2023-12-10T06:46:03,42.805,6.029,0.009,0.056,0.0,109.0,107.0,105.0,13.4,1505.2,0.0,-0.8,1.8,2471.716,13.29,0.056,9.1
2023-12-10T06:49:03,42.805,6.029,-0.005,0.022,-0.02,109.0,106.0,105.0,13.4,1505.2,349.4,-0.7,1.8,2471.666,13.29,0.022,347.2
2023-12-10T06:52:03,42.805,6.029,-0.021,0.034,-0.01,108.0,107.0,105.0,13.3,1505.2,347.0,-0.8,1.8,2471.692,13.29,0.039,328.3
2023-12-10T06:55:03,42.805,6.029,-0.004,0.035,0.015,107.0,108.0,104.0,13.3,1505.2,0.8,-0.8,1.8,2471.711,13.29,0.035,353.5
2023-12-10T06:58:03,42.805,6.029,-0.034,0.031,-0.011,108.0,107.0,105.0,13.4,1505.2,339.5,-0.8,1.8,2471.635,13.29,0.046,312.4
2023-12-10T07:04:03,42.805,6.029,0.001,0.046,-0.044,107.0,108.0,105.0,13.4,1505.2,1.6,-0.8,1.8,2471.709,13.29,0.046,1.2
2023-12-10T07:07:03,42.805,6.029,-0.035,0.034,-0.015,107.0,106.0,105.0,13.3,1505.2,345.3,-0.8,1.8,2471.691,13.29,0.048,314.2
2023-12-10T07:10:03,42.805,6.029,-0.014,0.045,-0.011,107.0,107.0,105.0,13.4,1505.2,356.7,-0.8,1.8,2471.694,13.29,0.047,342.7
2023-12-10T07:13:03,42.805,6.029,-0.022,0.025,-0.018,107.0,107.0,104.0,13.3,1505.2,338.2,-0.8,1.8,2471.709,13.29,0.033,318.7
2023-12-10T07:16:03,42.805,6.029,-0.033,0.03,-0.002,107.0,108.0,105.0,13.4,1505.2,356.5,-0.7,1.8,2471.696,13.29,0.044,312.3
2023-12-10T07:25:03,42.805,6.029,-0.029,0.049,0.012,107.0,107.0,105.0,13.4,1505.2,349.7,-0.8,1.8,2471.693,13.29,0.056,329.4
2023-12-10T07:28:03,42.805,6.029,-0.026,0.037,-0.032,107.0,106.0,105.0,13.3,1505.2,344.9,-0.8,1.8,2471.719,13.29,0.045,324.9
2023-12-10T07:31:03,42.805,6.029,-0.005,0.022,0.019,107.0,106.0,104.0,13.4,1505.2,350.1,-0.8,1.8,2471.731,13.29,0.022,347.2
2023-12-10T07:34:03,42.805,6.029,0.001,0.041,0.005,107.0,107.0,105.0,13.4,1505.2,348.2,-0.8,1.8,2471.695,13.29,0.041,1.4
2023-12-10T07:37:03,42.805,6.029,-0.03,0.053,0.023,106.0,106.0,105.0,13.3,1505.2,344.3,-0.8,1.8,2471.719,13.29,0.06,330.5
2023-12-10T07:40:03,42.805,6.029,0.001,0.029,-0.016,106.0,106.0,103.0,13.4,1505.2,355.4,-0.7,1.8,2471.722,13.29,0.029,2.0
2023-12-10T07:43:03,42.805,6.029,-0.039,0.02,-0.005,108.0,107.0,104.0,13.4,1505.2,340.2,-0.7,1.8,2471.658,13.29,0.043,297.1
2023-12-10T07:46:03,42.805,6.029,0.019,0.036,-0.008,107.0,107.0,105.0,13.4,1505.2,1.7,-0.8,1.8,2471.677,13.29,0.04,27.8
2023-12-10T07:49:03,42.805,6.029,-0.036,0.035,0.018,107.0,106.0,104.0,13.4,1505.2,338.9,-0.8,1.8,2471.69,13.29,0.05,314.2
2023-12-10T07:52:03,42.805,6.029,-0.018,0.013,-0.003,108.0,106.0,105.0,13.4,1505.2,345.5,-0.8,1.8,2471.668,13.29,0.022,305.8
2023-12-10T07:55:03,42.805,6.029,-0.023,0.031,-0.016,107.0,107.0,104.0,13.3,1505.2,351.7,-0.7,1.8,2471.697,13.29,0.038,323.4
2023-12-10T07:58:03,42.805,6.029,-0.019,0.043,-0.019,107.0,107.0,104.0,13.4,1505.2,342.7,-0.8,1.8,2471.64,13.29,0.047,336.2
2023-12-10T08:04:03,42.805,6.029,-0.014,0.012,-0.007,108.0,107.0,104.0,13.4,1505.2,344.6,-0.7,1.8,2471.704,13.29,0.018,310.6
2023-12-10T08:07:03,42.805,6.029,-0.027,0.031,-0.021,109.0,107.0,105.0,13.3,1505.2,0.0,-0.8,1.8,2471.7,13.29,0.041,318.9
2023-12-10T08:10:03,42.805,6.029,-0.005,0.03,-0.004,108.0,107.0,104.0,13.4,1505.2,351.6,-0.8,1.8,2471.712,13.29,0.03,350.5
2023-12-10T08:13:03,42.805,6.029,-0.032,0.048,-0.014,109.0,107.0,105.0,13.3,1505.2,339.2,-0.8,1.8,2471.697,13.29,0.057,326.3
2023-12-10T08:16:03,42.805,6.029,-0.033,0.039,-0.048,108.0,108.0,105.0,13.4,1505.2,345.1,-0.8,1.8,2471.676,13.29,0.051,319.8
2023-12-10T08:19:03,42.805,6.029,-0.003,0.025,-0.006,108.0,106.0,105.0,13.4,1505.2,356.9,-0.8,1.8,2471.675,13.29,0.025,353.2
2023-12-10T08:22:03,42.805,6.029,-0.033,0.018,0.008,108.0,107.0,104.0,13.4,1505.2,347.0,-0.8,1.8,2471.673,13.29,0.037,298.6
2023-12-10T08:25:03,42.805,6.029,-0.005,0.035,0.004,108.0,107.0,104.0,13.3,1505.2,352.7,-0.8,1.8,2471.642,13.29,0.035,351.9
2023-12-10T08:28:03,42.805,6.029,-0.027,0.033,0.017,109.0,107.0,104.0,13.4,1505.2,345.9,-0.8,1.8,2471.654,13.29,0.042,320.7
2023-12-10T08:31:03,42.805,6.029,-0.019,0.044,-0.016,108.0,108.0,105.0,13.3,1505.2,350.2,-0.8,1.8,2471.652,13.29,0.047,336.6
2023-12-10T08:34:03,42.805,6.029,-0.052,0.018,-0.023,107.0,108.0,105.0,13.3,1505.2,335.2,-0.7,1.8,2471.67,13.29,0.055,289.1
2023-12-10T08:37:03,42.805,6.029,0.005,0.047,-0.022,108.0,107.0,105.0,13.4,1505.2,356.4,-0.8,1.8,2471.682,13.29,0.047,6.1
2023-12-10T08:40:03,42.805,6.029,-0.003,0.031,0.0,109.0,108.0,105.0,13.4,1505.2,353.6,-0.7,1.8,2471.654,13.29,0.031,354.5
2023-12-10T08:43:03,42.805,6.029,-0.01,0.039,-0.006,108.0,107.0,105.0,13.4,1505.2,354.8,-0.8,1.8,2471.656,13.29,0.04,345.6
2023-12-10T08:46:03,42.805,6.029,-0.009,0.028,-0.012,108.0,107.0,105.0,13.4,1505.2,345.7,-0.8,1.8,2471.613,13.29,0.029,342.2
2023-12-10T08:49:03,42.805,6.029,0.007,0.039,0.008,108.0,108.0,106.0,13.4,1505.2,356.0,-0.8,1.8,2471.663,13.29,0.039,10.2
2023-12-10T08:52:03,42.805,6.029,-0.013,0.052,-0.001,108.0,109.0,105.0,13.3,1505.2,351.9,-0.8,1.8,2471.68,13.29,0.053,346.0
2023-12-10T08:55:03,42.805,6.029,-0.027,0.034,-0.007,107.0,108.0,105.0,13.3,1505.2,345.3,-0.8,1.8,2471.63,13.29,0.043,321.5
2023-12-10T08:58:03,42.805,6.029,-0.017,0.02,-0.014,108.0,107.0,105.0,13.3,1505.2,348.8,-0.8,1.8,2471.625,13.29,0.026,319.6
2023-12-10T09:04:03,42.805,6.029,-0.002,0.027,-0.014,109.0,108.0,105.0,13.4,1505.2,0.0,-0.8,1.8,2471.655,13.29,0.027,355.8
2023-12-10T09:07:03,42.805,6.029,-0.005,0.019,-0.021,107.0,108.0,105.0,13.4,1505.2,347.0,-0.8,1.8,2471.662,13.29,0.019,345.3
2023-12-10T09:10:03,42.805,6.029,-0.006,0.039,0.015,109.0,108.0,105.0,13.4,1505.2,345.3,-0.8,1.8,2471.644,13.29,0.039,351.3
2023-12-10T09:13:03,42.805,6.029,-0.028,0.035,0.003,108.0,108.0,104.0,13.4,1505.2,351.1,-0.7,1.8,2471.651,13.29,0.044,321.3
2023-12-10T09:16:03,42.805,6.029,0.0,0.039,-0.002,109.0,108.0,104.0,13.4,1505.2,356.9,-0.7,1.8,2471.658,13.29,0.039,0.0
2023-12-10T09:19:03,42.805,6.029,-0.006,0.023,-0.022,107.0,109.0,105.0,13.4,1505.2,355.6,-0.8,1.8,2471.652,13.29,0.023,345.4
2023-12-10T09:22:03,42.805,6.029,-0.016,0.03,-0.014,107.0,107.0,106.0,13.4,1505.2,357.3,-0.8,1.8,2471.622,13.29,0.034,331.9
2023-12-10T09:25:03,42.805,6.029,-0.021,0.016,-0.034,108.0,107.0,104.0,13.4,1505.2,339.1,-0.8,1.8,2471.644,13.29,0.026,307.3
2023-12-10T09:28:03,42.805,6.029,-0.001,0.027,-0.019,107.0,107.0,105.0,13.4,1505.2,357.4,-0.8,1.8,2471.608,13.29,0.027,357.9
2023-12-10T09:31:03,42.805,6.029,-0.004,0.025,-0.013,107.0,107.0,104.0,13.4,1505.2,345.5,-0.7,1.8,2471.629,13.29,0.025,350.9
2023-12-10T09:34:03,42.805,6.029,0.0,0.031,-0.012,108.0,107.0,104.0,13.4,1505.2,359.2,-0.8,1.8,2471.591,13.29,0.03,0.0
2023-12-10T09:37:03,42.805,6.029,-0.016,0.036,0.01,108.0,107.0,105.0,13.4,1505.2,347.6,-0.7,1.8,2471.645,13.29,0.039,336.0
2023-12-10T09:40:03,42.805,6.029,-0.019,0.015,-0.008,107.0,107.0,105.0,13.4,1505.2,344.9,-0.8,1.8,2471.622,13.29,0.024,308.3
2023-12-10T09:43:03,42.805,6.029,-0.012,0.012,0.006,107.0,107.0,105.0,13.4,1505.2,349.2,-0.7,1.8,2471.567,13.29,0.016,315.0
2023-12-10T09:46:03,42.805,6.029,-0.019,0.043,-0.026,107.0,107.0,104.0,13.4,1505.2,351.9,-0.8,1.8,2471.629,13.29,0.047,336.2
2023-12-10T09:49:03,42.805,6.029,-0.031,0.043,-0.032,107.0,107.0,104.0,13.4,1505.2,345.5,-0.8,1.8,2471.636,13.29,0.053,324.2
2023-12-10T09:52:03,42.805,6.029,0.0,0.019,-0.014,106.0,108.0,104.0,13.4,1505.2,0.0,-0.8,1.8,2471.623,13.29,0.019,0.0
2023-12-10T09:55:03,42.805,6.029,-0.003,0.032,-0.015,107.0,107.0,104.0,13.3,1505.2,350.0,-0.8,1.8,2471.591,13.29,0.032,354.6
2023-12-10T09:58:03,42.805,6.029,-0.007,0.025,-0.015,108.0,107.0,104.0,13.4,1505.2,353.8,-0.8,1.8,2471.653,13.29,0.025,344.4
2023-12-10T10:04:03,42.805,6.029,-0.003,0.026,-0.022,107.0,107.0,104.0,13.4,1505.2,341.3,-0.8,1.8,2471.643,13.29,0.026,353.4